Flag for Canada Weather past 2 weeks in Resolute Bay, Nunavut Territory, Canada

Now
-22 °F

Light snow. Passing clouds.


Feels Like: -51 °F
Forecast: -31 / -27 °F
Wind: 21 mph from Southeast

Location: Resolute

Current Time: Jan 28, 2015 at 10:52:38 PM

Latest Report: Jan 28, 2015 at 10:00 PM


Visibility: 15 mi

Pressure: 30.04 "Hg

Humidity: 68%

Dew point: -29 °F

Location of Resolute BayLocation

Historic Weather in Resolute Bay — Graph

°F

Resolute Bay temperature yesterday

Maximum temperature yesterday: -26 °F (at 3:00 PM)
Minimum temperature yesterday: -36 °F (at 12:00 AM)
Average temperature yesterday: -30 °F

Past Weeks' High & Low Weather Summary

 TemperatureHumidityPressure
High-15 °F (Jan 13, 9:00 PM)76% (Jan 13, 9:00 PM)30.14 "Hg (Jan 13, 9:00 PM)
Low-36 °F (Jan 22, 3:00 PM)37% (Jan 22, 4:00 PM)29.46 "Hg (Jan 27, 1:00 AM)
Average-29 °F70%29.81 "Hg
* Reported Jan 13 9:00 PM — Jan 28 9:00 PM, Resolute Bay, Weather by CustomWeather, © 2014

Note: Actual official high and low records may vary slightly from our data, if they occured in-between our weather recording intervals... More about our weather records

Advertising

Resolute Bay weather history for previous 24 hours

 ConditionsComfort  
Time TempWeatherWind HumidityBarometerVisibility
9:00 PM
Jan 28
-24 °FLight snow. Passing clouds.22 mph75%30.03 "Hg15 mi
8:00 PM-24 °FLight snow. Passing clouds.24 mph75%30.02 "Hg15 mi
7:00 PM-24 °FLight snow. Low level haze.20 mph75%30.01 "Hg10 mi
6:00 PM-24 °FLight snow. Scattered clouds.22 mph75%30.01 "Hg6 mi
5:00 PM-24 °FLight snow. Partly sunny.22 mph75%30.00 "Hg2 mi
4:00 PM-22 °FLight snow. Broken clouds.23 mph68%29.98 "Hg2 mi
3:00 PM-22 °FLight snow. Partly sunny.24 mph68%29.97 "Hg2 mi
2:00 PM-24 °FLight snow. Overcast.22 mph75%29.96 "Hg4 mi
1:00 PM-24 °FLight snow. Overcast.20 mph75%29.95 "Hg2 mi
12:00 PM-24 °FLight snow. Broken clouds.15 mph75%29.93 "Hg1 mi
11:00 AM-24 °FLight snow. Broken clouds.18 mph75%29.91 "Hg1 mi
10:00 AM-22 °FLight snow. Ice fog.18 mph75%29.89 "Hg1 mi
9:00 AM-22 °FLight snow. Ice fog.15 mph75%29.87 "Hg1 mi
8:00 AM-22 °FLight snow. Overcast.16 mph75%29.85 "Hg4 mi
7:00 AM-22 °FLight snow. Overcast.16 mph68%29.84 "Hg5 mi
6:00 AM-24 °FLight snow. Overcast.17 mph75%29.83 "Hg4 mi
5:00 AM-24 °FLight snow. Overcast.18 mph75%29.81 "Hg4 mi
4:00 AM-24 °FLight snow. Overcast.20 mph75%29.79 "Hg3 mi
3:00 AM-26 °FLight snow. Passing clouds.20 mph67%29.77 "Hg3 mi
2:00 AM-26 °FLight snow. Passing clouds.20 mph67%29.74 "Hg3 mi
1:00 AM-29 °FLight snow. Overcast.14 mph74%29.73 "Hg4 mi
12:00 AM-29 °FLight snow. Partly sunny.16 mph67%29.71 "Hg4 mi
11:00 PM
Jan 27
-27 °FLight snow. Passing clouds.13 mph67%29.69 "Hg6 mi
Weather by CustomWeather, © 2014

See weather overviewHow to use our weather pages